Hourly Data Report for July 06, 2016

TORONTO CITY
ONTARIO

43°40'00.000" N
79°24'00.000" W
112.50 m
6158355
71508
XTO

Download Data

Hourly Data (July 2016)
Hourly Data Report for July 6, 2016
TIME
LST
Temp Definition
°C
Dew Point Definition
°C
Rel Hum Definition
%
Precip. Amount Definition
mm

Wind Dir Definition
10's deg

Wind Spd Definition
km/h
Visibility Definition
km
Stn Press Definition
kPa
Hmdx Definition


Wind Chill Definition


Weather Definition


00:00 23.1 14.9 60 0.0 LegendMM LegendMM   99.72 27   LegendNANA
01:00 22.0 15.0 64 0.0 LegendMM LegendMM   99.76 26   LegendNANA
02:00 21.5 15.4 68 0.0 LegendMM LegendMM   99.80 26   LegendNANA
03:00 21.0 15.3 70 0.0 LegendMM LegendMM   99.79 25   LegendNANA
04:00 20.8 15.4 71 0.0 LegendMM LegendMM   99.79 25   LegendNANA
05:00 20.2 15.3 74 0.0 LegendMM LegendMM   99.77     LegendNANA
06:00 20.8 16.0 74 0.0 LegendMM LegendMM   99.72 25   LegendNANA
07:00 24.3 16.6 62 0.0 LegendMM LegendMM   99.75 29   LegendNANA
08:00 26.1 16.2 54 0.0 LegendMM LegendMM   99.81 31   LegendNANA
09:00 27.6 17.0 53 0.0 LegendMM LegendMM   99.81 33   LegendNANA
10:00 29.3 16.7 47 0.0 LegendMM LegendMM   99.77 34   LegendNANA
11:00 28.8 17.1 49 0.0 LegendMM LegendMM   99.79 34   LegendNANA
12:00 29.3 16.3 46 0.0 LegendMM LegendMM   99.73 34   LegendNANA
13:00 30.1 16.6 44 0.0 LegendMM LegendMM   99.65 35   LegendNANA
14:00 31.1 16.2 41 0.0 LegendMM LegendMM   99.61 36   LegendNANA
15:00 30.6 15.7 41 0.0 LegendMM LegendMM   99.55 35   LegendNANA
16:00 30.7 16.6 43 0.0 LegendMM LegendMM   99.52 36   LegendNANA
17:00 29.0 16.3 46 0.0 LegendMM LegendMM   99.50 34   LegendNANA
18:00 28.5 16.6 49 0.0 LegendMM LegendMM   99.46 34   LegendNANA
19:00 27.6 16.2 50 0.0 LegendMM LegendMM   99.46 32   LegendNANA
20:00 26.7 16.9 55 0.0 LegendMM LegendMM   99.45 32   LegendNANA
21:00 26.0 17.4 59 0.0 LegendMM LegendMM   99.44 32   LegendNANA
22:00 26.5 16.9 55 0.0 LegendMM LegendMM   99.47 32   LegendNANA
23:00 26.6 18.2 60 0.0 LegendMM LegendMM   99.51 33   LegendNANA

Notes on Data Quality.

Legend

  • E = Estimated
  • M = Missing
  • NA = Not Available*
  • [empty] = Indicates an unobserved value
Date modified: